Regional Weather Roundup
Issued by NWS

Home | Current Version | Previous Version | Graphics & Text | Print | Product List | Glossary On
Versions: 1 2 3 4 5 6 7 8 9 10 11 12 13 14 15 16 17 18 19 20 21 22 23 24 25 26 27 28 29 30 31 32 33 34 35 36 37 38 39 40 41 42 43 44 45 46 47 48 49 50
000
ASUS45 KCYS 172310
RWRWY

WYOMING REGIONAL WEATHER ROUNDUP
NATIONAL WEATHER SERVICE CHEYENNE WY
400 PM MST WED DEC 17 2014

NOTE:  "FAIR" INDICATES FEW OR NO CLOUDS BELOW 12,000 FEET
WITH NO SIGNIFICANT WEATHER AND/OR OBSTRUCTIONS TO VISIBILITY.

WYZ001-180000-
YELLOWSTONE NATIONAL PARK

CITY           SKY/WX    TMP DP  RH WIND       PRES   REMARKS
LK YELLOWSTONE   N/A     23  15  71 VRB5      29.94R WCI  17
W YELLOWSTONE  NOT AVBL

$$
WYZ002>013-054>058-071-098>099-180000-
NORTHERN WYOMING

CITY           SKY/WX    TMP DP  RH WIND       PRES   REMARKS
JACKSON        MOCLDY    30  27  86 CALM      29.94R
CODY           FAIR      25  23  93 CALM      29.89S
GREYBULL       FAIR      23  17  78 W5        29.95R WCI  17
WORLAND        FAIR      16  11  80 S3        29.94R
SHERIDAN       FAIR      22  16  78 CALM      29.93S
BUFFALO        FAIR      30  22  72 SW5       29.93R WCI  25
GILLETTE       FAIR      29  19  66 CALM      29.92R
HULETT           N/A    N/A N/A N/A MISG        N/A
NEWCASTLE      CLOUDY    21  21 100 NW6       29.95S FOG     WCI  14

$$
WYZ014>020-022>026-101>103-180000-
CENTRAL WYOMING

CITY           SKY/WX    TMP DP  RH WIND       PRES   REMARKS
BIG PINEY      FAIR      29  19  66 E6        29.95R WCI  23
PINEDALE       FAIR      30  19  64 NW8       29.95S WCI  23
DUBOIS         FAIR      28  18  64 NW14      29.89R WCI  17
LANDER         FAIR      14   9  80 CALM      29.93R
RIVERTON       FOG       17  13  84 CALM      29.94S VSB<1/4
CASPER         FAIR      30  21  69 SW10      29.92R WCI  21
DOUGLAS        FAIR      35  23  61 S3        29.92R

$$
WYZ021-027>030-104>119-180000-
SOUTHERN WYOMING

CITY           SKY/WX    TMP DP  RH WIND       PRES   REMARKS
EVANSTON       CLOUDY    34  18  52 W10       29.95R WCI  26
KEMMERER       CLOUDY    32  19  59 W5        29.95R WCI  27
FORT BRIDGER   FAIR      36  20  52 NW9       29.98R WCI  29
ROCK SPRINGS   FAIR      25  17  72 CALM      29.96R
DIXON          FAIR      20  17  86 CALM      29.99S
RAWLINS        FAIR      26  20  77 CALM      29.94R
SARATOGA       FAIR      28  21  74 CALM      29.95R
LARAMIE        FAIR      29  19  66 N6        29.91R WCI  23
CHEYENNE       MOCLDY    39  21  48 S8        29.90R WCI  33
TORRINGTON     FAIR      22  17  81 E8        29.93R WCI  12
PINE BLUFFS    FAIR      32  27  80 S5        29.92R WCI  27

$$


USA.gov is the U.S. government's official web portal to all federal, state and local government web resources and services.